Location: Cholupice
(49.9863°N, 14.4475°E)
Time: 16:13:56
(UTC+00:00)

Daily predictions for brighter satellites

Satellite Brightness Start Highest point End
(mag) Time Altitude Azimuth Time Altitude Azimuth Time Altitude Azimuth
SL-08 RB Rocket 3.7 15:40:56 10° SSE 15:45:23 89° E 15:49:55 10° NNW
USA 234 3.7 15:40:30 10° ENE 15:46:51 50° SE 15:53:09 10° SSW
Cosmos 2084 3.6 15:44:11 10° WSW 15:48:05 59° NW 15:51:51 10° NE
Cosmos 1606 Rocket 4.0 15:44:14 10° SSE 15:48:26 41° E 15:52:37 10° NNE
USA 308 2.0 15:48:35 10° WNW 15:50:43 32° N 15:52:21 12° ENE
Lacrosse 4 Rocket 3.5 15:48:59 10° N 15:50:50 12° NNE 15:52:41 10° NE
Cosmos 1726 Rocket 4.2 15:48:18 10° SSE 15:52:19 35° E 15:56:23 10° NNE
Cosmos 2237 Rocket 2.4 15:49:45 10° NNW 15:55:25 79° WSW 16:01:01 10° SSE
Helios 1B rocket 2.5 15:53:10 10° SSE 15:57:06 79° WSW 16:01:04 10° NNW
Cosmos 1825 Rocket 3.5 15:54:03 10° N 15:58:22 66° ENE 16:02:39 10° SSE
USA 307 3.2 15:55:08 10° WNW 15:58:51 45° N 16:02:14 12° ENE
CZ-4B R/B 3.9 15:55:57 10° SE 15:59:21 43° ENE 16:02:48 10° N
H-2A R/B 4.4 15:56:01 10° SSW 16:00:19 26° W 16:04:33 10° NW
USA 305 3.3 15:57:24 10° WNW 16:01:01 42° N 16:04:17 13° ENE
Cosmos 2298 Rocket 4.2 15:57:12 10° S 16:02:21 54° ESE 16:07:33 10° NNE
Cosmos 2285 Rocket 4.3 15:56:24 10° NNW 16:02:50 76° WSW 16:09:15 10° SSE
SMAP 3.0 16:00:02 10° SSE 16:04:38 64° ENE 16:09:15 10° N
Cosmos 1634 Rocket 4.0 16:01:59 10° N 16:08:17 72° ENE 16:14:35 10° SSE
Cosmos 1544 3.5 16:06:30 10° N 16:09:27 30° ENE 16:12:21 10° SE
ATLAS CENTAUR R/B 2.8 16:08:33 10° NW 16:11:59 41° NNE 16:17:43 12° E
Cosmos 2084 Rocket 3.2 16:11:40 10° NW 16:15:28 58° NE 16:19:13 10° ESE
YAOGAN 1 4.1 16:15:41 15° ENE 16:16:14 16° ENE 16:18:47 10° NNE
NOSS 2-1 (C) 3.9 16:13:25 10° NW 16:17:19 75° SW 16:22:46 10° SE
NOSS 3 (A) 4.5 16:18:52 10° NW 16:21:36 82° NE 16:25:15 10° SE
Cosmos 1869 4.0 16:18:07 10° SSW 16:21:51 53° WNW 16:25:34 10° N
NOSS 2-1 (D) 4.1 16:20:23 10° NW 16:24:30 73° SW 16:30:23 10° SSE
Cosmos 2227 Rocket 2.2 16:21:53 10° SSW 16:27:27 63° ESE 16:32:48 11° NE
USA 306 2.4 16:26:09 10° WNW 16:28:12 28° N 16:28:30 27° NNE
Helios 1A 3.5 16:24:41 10° NNE 16:28:31 37° E 16:32:24 10° SSE
Cosmos 1437 Rocket 2.6 16:24:59 10° N 16:28:37 56° ENE 16:32:16 10° SSE
AQUARIUS 4.1 16:27:21 10° SSE 16:31:49 88° ENE 16:36:19 10° NNW
Cosmos 2263 Rocket 3.2 16:28:05 10° SSE 16:32:33 25° ESE 16:34:45 20° ENE
ISS -3.7 16:29:21 10° WNW 16:32:42 65° N 16:34:22 27° E
DMSP B5D2-2 4.1 16:28:05 10° NNE 16:33:19 86° WNW 16:38:32 10° SSW
ADEOS 4.1 16:29:14 10° SE 16:33:58 37° ENE 16:38:44 10° N
Cosmos 405 Rocket 2.6 16:34:44 10° S 16:38:25 60° E 16:41:49 12° NNE
Cosmos 1607 4.4 16:33:05 10° S 16:38:57 42° ESE 16:42:57 20° ENE
SL-24 R/B - RUBIN 2 4.2 16:34:28 10° SW 16:39:51 90° ESE 16:44:46 16° NE
SL-08 R/B 4.2 16:38:40 23° ENE 16:39:51 26° E 16:43:41 10° SSE
Cosmos 2279 Rocket 3.9 16:35:46 10° N 16:42:04 84° E 16:48:18 10° S
Cosmos 1606 3.7 16:39:28 10° SSW 16:42:57 44° WNW 16:46:28 10° N
Cosmos 1269 Rocket 3.9 16:38:41 10° NNW 16:43:59 71° ENE 16:49:16 10° SSE
ATLAS 2AS CENTAUR R/B 3.7 16:39:00 10° NW 16:45:09 30° NNE 16:48:23 21° ENE
Aureole 3 Rocket 4.0 16:40:12 10° NNW 16:45:56 58° W 16:50:02 10° S
Cosmos 2151 2.9 16:41:56 10° N 16:46:12 87° ENE 16:50:28 10° S
Cosmos 1953 Rocket 4.0 16:42:08 10° NNW 16:46:35 66° W 16:50:58 10° S
SL-16 R/B 2.2 16:40:52 10° NNW 16:46:36 87° ENE 16:52:16 10° SSE
CZ-4B R/B 3.4 16:43:41 10° SSE 16:48:51 83° ENE 16:53:54 10° NNW
Cosmos 1666 2.6 16:47:24 10° N 16:50:51 50° ENE 16:54:17 10° SSE
SL-8 R/B 3.7 16:48:26 10° W 16:53:13 75° S 16:55:36 29° E
Meteor 1-31 Rocket 4.0 16:52:57 10° S 16:56:28 41° W 17:00:00 10° NNW
Radarsat Rocket 3.8 16:51:31 10° SSE 16:57:19 76° ENE 17:03:17 10° NNW
CZ-4 R/B 4.3 16:56:21 10° SSE 17:00:24 70° ENE 17:04:30 10° N
COSMO-SKYMED 1 2.7 16:58:40 25° NE 17:00:58 52° E 17:05:13 10° S
ATLAS 5 CENTAUR R/B 4.5 16:59:15 10° WNW 17:03:36 26° WSW 17:08:39 10° S
Cosmos 2058 Rocket 3.1 16:59:15 10° S 17:03:43 84° W 17:08:12 10° N
Cosmos 1076 Rocket 3.6 16:59:21 10° NNW 17:03:43 77° W 17:08:04 10° S
Meteor PRIRODA 4.0 17:04:38 40° NNE 17:04:38 40° NNE 17:07:09 10° N
Nadezhda 4 Rocket 4.0 16:58:28 10° SSE 17:04:25 53° E 17:10:21 10° NNE
Tiangong 0.3 17:02:37 10° SW 17:04:38 16° S 17:05:50 13° SSE
Cosmos 1943 3.5 16:59:16 10° NNW 17:04:40 44° NE 17:06:47 31° E
Cosmos 2219 3.1 17:06:14 10° SSW 17:11:51 85° ESE 17:15:24 24° NNE
Cosmos 44 3.4 17:09:42 10° NW 17:15:10 83° NE 17:18:21 25° SE
Cosmos 2297 Rocket 3.3 17:11:09 10° WSW 17:16:27 40° NW 17:21:17 12° NNE
CZ-4B R/B 3.1 17:17:13 48° ESE 17:17:57 56° ENE 17:22:12 10° N
NOSS 3-4 (A) 4.2 17:13:30 10° NW 17:20:19 66° SW 17:28:10 10° SSE
NOSS 3-4 (C) 4.2 17:13:39 10° NW 17:20:25 65° SW 17:28:10 10° SSE
Cosmos 1500 4.0 17:18:33 10° NNW 17:21:59 47° W 17:25:22 10° S
NOSS 3-3 (C) 4.5 17:17:45 10° WSW 17:23:21 53° NW 17:27:12 24° NNE
NOSS 3-3 (A) 4.5 17:18:31 10° WSW 17:24:06 52° NW 17:27:56 24° NNE
Cosmos 724 4.4 17:19:39 10° SSW 17:25:47 65° ESE 17:27:50 42° ENE
IGS 5A 4.3 17:28:17 35° N 17:28:17 35° N 17:30:50 10° N
Cosmos 1023 Rocket 4.4 17:23:30 10° NNW 17:28:40 62° ENE 17:29:35 53° ESE
USA 234 3.3 17:26:58 34° NE 17:30:05 72° NNW 17:36:35 10° WSW
Lacrosse 4 Rocket 2.5 17:26:14 10° NNW 17:29:09 33° N 17:29:09 33° N
Cosmos 2082 3.5 17:26:32 10° SSW 17:32:08 78° ESE 17:34:02 43° NE
NOAA 15 4.5 17:28:43 10° SSE 17:34:00 73° ENE 17:39:18 10° NNW
USA 307 3.2 17:30:59 10° WNW 17:34:08 49° NNW 17:34:08 49° NNW
USA 305 3.4 17:32:38 10° WNW 17:35:36 43° NNW 17:35:36 43° NNW
Meteor 1-20 Rocket 4.1 17:36:36 10° NNW 17:42:09 86° WSW 17:47:45 10° S
Meteor 2-2 Rocket 4.2 17:37:45 10° S 17:43:21 62° E 17:43:34 61° E
ADEOS Rocket 4.3 17:51:01 21° N 17:51:01 21° N 17:53:05 10° N
SKYMED 2 4.2 17:47:18 32° N 17:49:05 54° WNW 17:53:18 10° SSW
YAOGAN 1 3.1 17:52:45 51° NNW 17:52:45 51° NNW 17:56:03 10° NNW
Cosmos 1140 Rocket 3.3 17:47:57 10° NNW 17:53:12 90° WSW 17:53:27 82° SSE
CZ-4B R/B 4.0 17:55:21 37° NNE 17:55:21 37° NNE 17:58:56 10° N
Cosmos 2251 Rocket 3.5 17:52:04 10° NNW 17:56:51 69° N 17:56:51 69° N
Cosmos-2242 3.6 17:55:04 10° SSW 17:58:37 53° SW 17:58:37 53° SW
SME Rocket 4.0 17:57:08 26° S 18:00:13 80° WSW 18:07:54 10° NNW
ISS -1.0 18:06:10 10° WNW 18:07:17 19° W 18:07:17 19° W
Cosmos 2227 Rocket 3.8 18:06:59 10° WSW 18:11:55 30° NW 18:14:37 21° N
Cosmos 2263 Rocket 2.5 18:10:33 10° SW 18:16:04 61° WNW 18:16:28 59° NW
Cosmos 1603 3.9 18:11:22 10° NNW 18:16:13 65° NW 18:16:13 65° NW
ATLAS CENTAUR R/B 3.2 18:12:32 10° WNW 18:17:16 67° SW 18:18:26 57° S
SL-08 R/B 4.2 18:17:34 43° WNW 18:17:46 43° WNW 18:22:06 10° SW
Cosmos 407 Rocket 4.2 18:13:24 10° NNW 18:17:06 46° NW 18:17:06 46° NW
Cosmos 2026 Rocket 4.2 18:27:40 10° SSW 18:42:41 - N 18:33:42 69° W
ATLAS 2AS CENTAUR R/B 3.2 18:30:27 10° NW 18:35:49 50° N 18:35:49 50° N
Cosmos 1092 Rocket 4.4 18:35:33 10° SSW 18:41:19 59° W 18:41:19 59° W
Cosmos 1943 4.4 18:43:30 10° NW 18:48:38 37° WSW 18:48:38 37° WSW
Cosmos 2344 3.7 18:48:18 10° SW 18:54:21 62° SW 18:54:21 62° SW
USA 234 4.2 19:14:18 41° NW 19:14:18 41° NW 19:18:55 10° WNW
